Home > Weather > Ciudad del Este > Past weeks

Flag for Paraguay Past Weather in Ciudad del Este, Paraguay — Yesterday and Last 2 Weeks

Now
46 °F

Passing clouds.


Feels Like: 46 °F
Forecast: 46 / 64 °F
Wind: 2 mph from Southwest

Location: Foz Do Iguacu Aeroporto

Current Time: Jul 27, 2016 at 5:47:42 AM

Latest Report: Jul 27, 2016 at 5:00 AM


Visibility: N/A

Pressure: 30.21 "Hg

Humidity: 100%

Dew Point: 46 °F

Location of Ciudad del EsteLocation

Past Weather in Ciudad del Este — Graph

°F

Ciudad del Este Temperature Yesterday

Maximum temperature yesterday: 77 °F (at 11:00 AM)
Minimum temperature yesterday: 52 °F (at 11:00 PM)
Average temperature yesterday: 68 °F

High & Low Weather Summary for the Past Weeks

 TemperatureHumidityPressure
High86 °F (Jul 14, 1:00 PM)100% (Jul 12, 8:00 PM)30.30 "Hg (Jul 12, 8:00 PM)
Low36 °F (Jul 17, 6:00 AM)33% (Jul 24, 3:00 PM)29.74 "Hg (Jul 14, 2:00 PM)
Average60 °F80%30.04 "Hg
* Reported Jul 12 4:00 AM — Jul 27 4:00 AM, Ciudad del Este, Weather by CustomWeather, © 2016

Note: Actual official high and low records may vary slightly from our data, if they occured in-between our weather recording intervals... More about our weather records

Advertising

Ciudad del Este Weather History for the Previous 24 Hours

Scroll right to see more
 ConditionsComfort  
Time TempWeatherWind HumidityBarometerVisibility
4:00 AM
Wed, Jul 27
46 °FPassing clouds.2 mph93%30.18 "HgN/A
3:00 AM48 °FPassing clouds.3 mph94%30.18 "HgN/A
2:00 AM48 °FPassing clouds.3 mph100%30.18 "HgN/A
1:00 AM48 °FClear.2 mph100%30.18 "Hg10 mi
12:00 AM50 °FPassing clouds.2 mph100%30.18 "HgN/A
11:00 PM
Tue, Jul 26
52 °FClear.2 mph94%30.15 "Hg10 mi
10:00 PM54 °FClear.5 mph88%30.15 "Hg10 mi
9:00 PM55 °FClear.7 mph88%30.12 "Hg10 mi
8:00 PM59 °FClear.5 mph82%30.09 "Hg10 mi
7:00 PM61 °FClear.5 mph88%30.09 "Hg10 mi
6:00 PM61 °FClear.5 mph88%30.04 "Hg10 mi
5:00 PM63 °FPartly cloudy.5 mph88%30.04 "HgN/A
4:00 PM64 °FThunderstorms. Broken clouds.7 mph83%30.01 "HgN/A
3:00 PM66 °FPartly sunny.7 mph83%29.98 "HgN/A
2:00 PM73 °FBroken clouds.8 mph74%29.95 "HgN/A
1:00 PM77 °FPartly sunny.8 mph57%29.92 "HgN/A
12:00 PM77 °FSunny.12 mph51%29.95 "Hg10 mi
11:00 AM77 °FSunny.8 mph51%29.95 "Hg10 mi
10:00 AM75 °FSunny.5 mph54%29.95 "Hg10 mi
9:00 AM75 °FSunny.12 mph50%29.95 "Hg10 mi
8:00 AM75 °FSunny.13 mph47%29.89 "Hg10 mi
7:00 AM72 °FSunny.10 mph53%29.86 "Hg10 mi
6:00 AM72 °FSunny.12 mph53%29.86 "Hg10 mi
5:00 AM70 °FClear.12 mph60%29.86 "Hg10 mi
Weather by CustomWeather, © 2016

See weather overviewHow to use our weather pages